Wind_Speed
8 7 7 7 6 6 5 4 3 3 4 6 8 10 13 14 13 13 14 15 13 10 9 9 7 6 6 7 7 6 6 4 3 8 11 8 8 9 13 15 16 8 16 12 12
9 8 8 8 8 7 6 5 4 4 3 3 3 2 3 7 9 11 12 13 14 13 10 9 8 6 6 6 5 5 6 5 7 9 13 11 10 10 12 12 16 17 15 14 10
11 10 9 8 8 7 7 6 5 5 4 4 3 2 2 0 4 7 10 10 11 14 15 12 11 9 8 8 6 7 7 10 12 14 15 16 14 13 14 17 12 11 11 9 10
14 12 11 10 8 7 6 6 5 5 4 4 3 1 0 2 3 4 6 7 9 11 15 15 13 12 11 9 9 9 10 12 12 16 20 19 18 17 15 11 11 7 14 11 7
14 13 12 11 10 8 7 6 5 5 4 5 3 1 1 2 3 3 4 4 5 9 12 13 12 12 11 9 12 14 15 16 18 18 16 10 8 5 8 8 8 11 13 10 7
15 14 13 12 11 9 8 7 5 5 4 4 1 1 3 3 3 4 4 6 8 9 9 10 9 10 10 10 11 15 15 10 5 6 2 4 9 8 11 12 10 12 13 11 10
16 15 14 13 12 10 8 7 6 5 3 3 1 3 5 5 5 3 3 5 6 8 12 13 11 9 8 6 6 10 4 3 6 9 8 5 8 13 13 14 15 11 11 3 1
16 15 15 14 12 10 9 7 6 5 3 1 2 4 5 7 6 3 2 3 4 4 9 11 10 7 5 2 5 4 5 3 6 8 9 6 9 14 19 19 15 10 7 7 2
16 16 14 13 12 11 9 8 6 4 3 1 3 6 7 6 3 3 3 5 4 4 7 8 5 3 1 4 4 3 6 6 4 5 10 8 11 16 19 16 16 12 7 5 5
15 16 15 13 12 11 10 8 6 4 1 2 3 7 8 5 3 3 5 6 5 4 4 3 4 5 4 4 3 8 9 8 8 7 6 7 12 17 18 13 11 9 8 9 8
14 15 15 13 12 10 9 8 7 1 2 1 4 4 6 5 6 5 9 11 7 4 4 4 5 2 2 3 4 6 7 5 5 6 6 9 14 16 15 12 15 14 6 3 7
13 14 15 14 13 12 9 6 6 3 2 0 2 4 4 5 9 11 10 8 5 4 3 5 6 4 3 3 4 2 3 4 4 5 5 8 13 16 13 10 12 11 10 8 7
14 13 15 15 13 12 10 7 5 4 3 6 8 8 9 10 9 10 8 7 8 5 4 6 6 9 6 6 1 1 5 7 7 8 10 12 11 13 9 8 10 9 7 9 10
18 14 14 16 14 13 11 8 6 4 6 5 5 8 9 10 8 9 8 6 4 5 5 6 3 3 2 6 5 3 6 8 11 12 10 11 11 9 7 6 6 7 7 7 9
20 17 16 16 15 13 11 9 4 2 2 5 6 9 9 6 8 6 6 4 2 1 2 2 3 3 4 5 8 7 12 15 15 14 12 3 5 5 7 3 6 10 14 17 18
20 21 17 14 13 12 10 7 4 1 2 4 5 6 7 6 5 7 7 7 5 4 3 5 6 4 2 5 11 15 16 16 10 8 6 1 2 7 3 3 6 11 16 19 16
19 20 17 14 12 10 9 5 3 3 4 4 7 6 7 5 4 5 12 11 7 3 3 3 6 5 2 9 13 15 14 5 1 3 3 2 7 7 4 4 10 12 12 15 19
17 18 16 15 11 9 7 5 6 5 7 6 6 6 5 4 5 5 6 11 11 11 8 5 4 1 6 11 12 8 7 3 4 3 6 12 6 3 5 4 12 20 19 19 24
16 16 14 13 11 9 6 7 5 8 8 6 7 8 6 4 4 6 7 8 6 6 5 3 4 3 4 11 11 5 2 2 2 4 4 3 6 11 7 14 17 22 18 22 28
15 13 13 12 11 10 8 9 9 10 7 6 6 6 7 6 3 5 7 8 7 4 4 3 3 4 4 11 5 3 5 3 3 3 5 5 8 14 17 18 25 18 24 23 23
17 14 12 11 10 9 9 10 11 11 12 7 5 5 4 3 4 5 6 9 6 3 0 5 3 4 8 3 3 0 2 4 3 3 5 6 6 12 21 15 20 22 23 24 26
17 14 11 10 9 8 9 10 13 10 13 10 8 6 5 4 3 5 9 8 4 2 6 4 5 6 5 6 7 4 8 7 6 5 10 15 22 11 8 26 22 25 26 27 29
17 16 13 12 11 12 11 12 12 11 10 11 10 10 8 7 3 6 8 6 6 7 4 6 5 6 3 5 9 7 10 9 13 17 17 14 15 13 29 25 23 29 30 29 30
15 11 11 13 13 13 13 13 13 11 10 11 12 12 10 8 7 6 7 5 5 5 7 7 8 10 11 11 12 13 13 15 17 16 22 25 30 26 27 25 29 28 29 31 33
16 14 14 11 13 15 15 12 13 14 12 11 10 10 9 8 9 9 8 8 10 13 5 9 11 16 19 12 16 18 21 22 21 27 20 26 27 28 26 29 30 35 31 29 30
18 17 17 17 17 18 17 16 16 16 14 13 13 12 11 10 8 8 10 10 11 13 17 19 17 17 19 19 19 22 24 26 24 19 24 27 27 24 24 27 30 28 28 30 35
21 20 20 21 20 20 21 20 19 18 14 14 12 12 12 12 12 12 10 9 12 17 21 20 13 11 15 13 8 13 15 7 8 12 17 18 22 24 25 23 25 25 27 34 37
Wind_Direction
13 14 11 8 8 12 18 19 7 331 302 291 278 264 258 256 253 247 243 239 242 249 252 260 268 280 288 282 282 274 275 275 277 331 328 345 349 356 355 358 8 0 348 335 297
16 15 11 6 3 4 5 7 11 12 360 355 349 346 272 247 243 239 239 237 233 238 242 248 254 270 279 284 291 286 269 272 273 287 294 303 322 331 339 346 342 329 335 336 304
16 13 8 2 1 358 356 349 354 356 1 356 346 1 35 135 208 223 230 234 230 229 233 239 250 267 273 273 272 286 283 263 263 284 293 299 307 317 322 333 336 326 316 323 287
16 12 8 4 358 356 350 347 346 340 340 343 342 331 62 108 155 167 203 223 226 225 229 234 244 258 267 260 259 261 276 278 283 279 292 303 296 302 315 327 340 321 311 295 255
14 12 8 7 3 360 354 357 349 335 334 345 326 249 166 166 179 187 190 203 207 214 220 231 243 252 254 256 270 283 289 287 293 293 298 312 302 332 339 349 347 343 334 309 246
10 10 5 6 6 1 358 0 359 349 347 358 334 186 148 150 158 171 204 213 223 223 216 221 230 242 254 267 285 294 304 309 14 43 33 80 80 31 21 13 351 340 341 320 291
4 6 2 1 0 358 358 354 359 353 347 13 72 134 143 136 135 144 202 225 232 227 222 225 232 239 258 290 302 311 0 143 46 23 41 108 34 14 4 352 352 332 339 333 15
358 1 359 358 353 351 351 350 354 349 344 354 107 135 144 148 141 133 152 187 191 198 197 216 228 245 286 330 13 50 60 88 4 13 43 29 354 359 352 343 333 328 324 322 220
351 350 354 352 348 347 343 346 347 340 322 290 143 150 145 146 145 167 145 160 152 148 182 213 225 235 108 22 51 25 349 6 44 57 23 23 360 359 351 345 336 322 297 282 266
346 342 345 344 342 342 345 339 337 336 67 121 156 150 160 150 157 191 169 156 150 140 136 149 134 113 55 9 339 336 350 356 354 355 30 355 359 359 2 354 350 337 313 296 265
339 338 341 344 333 335 337 341 339 89 350 156 183 216 180 180 165 168 128 121 119 135 138 144 133 45 348 347 0 352 349 338 354 351 16 354 356 359 16 27 38 28 2 301 279
334 333 335 342 340 334 331 336 346 341 327 122 207 211 204 178 173 156 136 123 105 128 145 132 80 37 343 350 343 338 359 348 355 317 331 332 336 331 333 357 4 8 355 359 330
325 329 328 332 333 334 336 336 337 355 135 94 104 110 130 132 145 152 148 126 88 87 166 133 81 51 47 58 114 24 5 0 339 333 319 311 307 297 306 8 9 357 344 331 318
314 321 321 321 326 325 329 330 337 7 133 132 121 110 126 127 136 143 139 122 117 74 109 139 76 29 359 31 75 354 351 332 318 305 297 290 298 282 287 351 358 2 8 0 348
309 314 319 319 319 319 319 319 319 17 117 147 135 144 140 140 141 165 179 193 213 58 70 189 276 284 270 7 14 349 340 330 309 277 269 287 270 252 288 298 335 331 333 340 342
305 307 311 311 309 309 305 305 291 237 160 163 165 173 167 155 174 192 201 220 241 275 318 262 254 230 40 15 358 346 341 323 289 259 245 167 345 279 214 272 307 320 318 320 332
300 298 302 300 301 303 298 287 220 210 187 180 185 197 206 214 233 221 215 222 234 233 258 267 213 219 311 352 354 347 349 324 215 202 290 310 309 253 223 318 337 329 327 328 334
298 294 295 292 290 286 285 252 223 208 173 175 189 206 211 238 211 207 204 218 236 249 253 205 195 170 332 356 352 348 3 317 291 261 306 295 254 224 257 297 325 330 316 313 320
297 296 293 286 279 268 266 225 212 206 203 181 181 191 204 216 192 175 188 191 194 208 198 175 190 295 339 353 357 323 16 326 260 284 269 261 275 254 251 300 316 317 312 312 312
295 295 292 285 273 264 249 228 216 214 196 189 188 196 188 201 198 185 180 167 160 170 191 221 287 267 322 343 17 62 70 358 354 300 290 264 278 265 293 292 305 304 305 302 306
294 295 290 282 276 261 238 223 204 216 201 195 199 199 212 231 200 187 185 162 174 149 229 316 267 247 302 284 283 22 42 20 341 248 289 296 261 276 295 313 310 305 308 309 308
285 292 279 277 267 253 233 214 194 200 214 214 216 205 202 205 185 181 181 189 183 297 313 273 260 258 264 251 243 179 329 328 333 297 262 272 286 284 261 310 304 302 302 302 302
277 278 274 267 255 245 233 220 217 209 204 208 207 205 207 223 219 197 199 216 288 295 289 281 247 275 262 251 210 277 292 287 305 289 266 273 278 289 309 312 303 304 305 302 299
279 269 265 259 251 243 236 230 227 220 215 214 213 211 209 221 237 215 225 249 263 295 311 292 262 250 265 275 269 256 278 283 296 275 279 265 286 301 313 307 310 308 306 307 305
273 261 251 249 244 244 245 241 230 223 227 223 229 221 213 223 222 233 244 259 283 304 300 295 271 275 278 269 259 273 271 280 274 288 256 284 292 302 309 311 311 313 313 313 312
271 260 250 242 241 241 243 244 240 241 235 235 233 234 231 224 229 247 255 268 282 291 297 297 289 284 277 272 267 271 274 278 277 272 265 286 292 301 308 307 309 310 313 319 321
265 263 258 251 243 241 240 245 249 248 249 247 242 229 226 233 242 256 264 274 291 295 297 291 282 292 285 291 274 265 291 262 267 276 288 287 300 307 306 309 308 310 321 325 324
Height
3169 3168 3166 3165 3164 3163 3162 3162 3161 3161 3161 3161 3160 3161 3161 3162 3164 3165 3166 3168 3169 3171 3171 3172 3173 3174 3174 3174 3175 3176 3176 3175 3175 3175 3175 3175 3175 3174 3173 3171 3170 3170 3169 3168 3167
3168 3167 3166 3164 3163 3163 3162 3161 3161 3161 3160 3160 3159 3159 3159 3159 3160 3162 3164 3164 3167 3168 3170 3171 3172 3173 3173 3173 3174 3175 3175 3174 3174 3173 3173 3174 3174 3174 3173 3171 3170 3169 3168 3167 3166
3167 3166 3165 3164 3163 3162 3162 3161 3160 3160 3159 3159 3159 3158 3158 3158 3159 3159 3160 3162 3164 3166 3168 3169 3170 3172 3172 3172 3173 3173 3174 3173 3172 3171 3172 3172 3173 3172 3171 3170 3169 3167 3166 3165 3164
3167 3166 3164 3163 3162 3161 3161 3160 3159 3159 3159 3158 3158 3158 3158 3158 3161 3158 3159 3160 3162 3164 3165 3167 3169 3170 3171 3171 3171 3172 3172 3171 3171 3171 3170 3171 3170 3170 3170 3168 3165 3164 3162 3162 3162
3167 3166 3164 3163 3162 3160 3159 3159 3158 3158 3158 3157 3156 3157 3157 3158 3158 3158 3158 3160 3161 3162 3163 3165 3167 3168 3169 3169 3170 3169 3169 3169 3169 3168 3168 3168 3167 3167 3166 3165 3164 3162 3160 3159 3159
3167 3165 3164 3163 3161 3160 3159 3158 3157 3157 3157 3156 3156 3156 3157 3158 3157 3158 3158 3159 3160 3161 3162 3164 3165 3167 3167 3168 3169 3168 3167 3166 3167 3167 3167 3166 3166 3165 3164 3163 3162 3161 3158 3156 3156
3167 3165 3164 3162 3160 3159 3158 3157 3157 3156 3156 3156 3156 3155 3156 3158 3157 3157 3158 3158 3159 3159 3161 3162 3164 3166 3167 3168 3167 3166 3166 3165 3167 3167 3166 3165 3165 3163 3163 3161 3160 3158 3157 3156 3155
3167 3165 3164 3162 3160 3159 3157 3157 3156 3155 3155 3155 3155 3155 3156 3156 3157 3157 3157 3157 3158 3158 3159 3161 3163 3165 3166 3167 3166 3165 3166 3166 3166 3165 3165 3164 3163 3162 3160 3158 3157 3157 3156 3155 3153
3166 3164 3163 3161 3160 3158 3157 3156 3155 3154 3154 3154 3155 3155 3156 3157 3157 3157 3157 3157 3158 3159 3160 3161 3163 3165 3166 3166 3166 3165 3165 3165 3165 3164 3163 3163 3162 3160 3158 3156 3154 3153 3154 3154 3151
3166 3164 3162 3160 3159 3157 3156 3155 3154 3154 3153 3153 3154 3157 3157 3158 3157 3157 3157 3158 3159 3160 3161 3162 3163 3165 3165 3165 3166 3165 3164 3163 3163 3164 3162 3160 3160 3159 3158 3155 3153 3151 3150 3150 3149
3165 3163 3161 3159 3158 3156 3156 3155 3156 3155 3153 3153 3153 3154 3155 3157 3157 3157 3157 3159 3160 3161 3162 3162 3165 3165 3164 3164 3164 3164 3164 3163 3162 3161 3160 3158 3157 3157 3156 3156 3153 3151 3148 3147 3147
3164 3162 3160 3159 3156 3155 3154 3153 3152 3153 3152 3151 3151 3152 3153 3154 3157 3158 3159 3161 3161 3161 3162 3164 3164 3163 3163 3163 3163 3163 3163 3162 3161 3160 3160 3157 3156 3155 3154 3153 3152 3150 3148 3147 3145
3162 3161 3159 3158 3156 3155 3153 3152 3151 3151 3151 3151 3151 3152 3153 3155 3156 3158 3160 3160 3160 3161 3161 3162 3164 3163 3163 3162 3162 3162 3161 3160 3160 3159 3157 3156 3156 3154 3153 3152 3151 3149 3148 3146 3143
3159 3159 3158 3156 3157 3153 3152 3151 3150 3150 3150 3153 3153 3153 3154 3155 3157 3158 3159 3161 3161 3161 3161 3163 3163 3163 3163 3162 3162 3162 3161 3159 3158 3157 3156 3155 3153 3152 3151 3150 3149 3148 3147 3145 3143
3155 3155 3155 3153 3152 3151 3151 3149 3149 3150 3150 3154 3152 3153 3154 3156 3157 3158 3159 3160 3160 3161 3162 3163 3162 3161 3161 3161 3160 3161 3158 3156 3154 3152 3152 3152 3153 3149 3149 3149 3147 3146 3143 3141 3140
3152 3151 3152 3152 3150 3149 3148 3148 3149 3151 3149 3151 3150 3152 3153 3154 3155 3155 3157 3158 3158 3159 3159 3160 3159 3159 3159 3159 3158 3157 3155 3151 3149 3149 3150 3150 3151 3147 3146 3146 3146 3144 3142 3139 3137
3149 3148 3148 3148 3148 3146 3146 3147 3149 3147 3149 3150 3149 3150 3151 3152 3152 3153 3154 3155 3157 3158 3158 3158 3157 3158 3158 3157 3156 3155 3153 3150 3149 3148 3146 3148 3149 3144 3144 3143 3142 3141 3140 3137 3134
3145 3144 3144 3144 3144 3143 3144 3146 3146 3145 3144 3146 3147 3148 3149 3150 3150 3151 3152 3153 3154 3155 3156 3156 3157 3156 3156 3156 3155 3152 3152 3152 3150 3147 3147 3147 3144 3143 3142 3141 3140 3138 3137 3134 3131
3141 3140 3140 3139 3140 3141 3142 3142 3141 3142 3143 3144 3145 3147 3148 3148 3149 3149 3150 3151 3152 3152 3155 3154 3155 3154 3154 3153 3154 3152 3152 3152 3151 3149 3149 3144 3142 3140 3139 3138 3136 3135 3132 3130 3127
3137 3136 3136 3136 3136 3137 3139 3139 3139 3139 3141 3142 3143 3144 3145 3146 3148 3148 3149 3151 3151 3151 3151 3152 3153 3152 3152 3152 3151 3151 3152 3151 3150 3147 3145 3141 3140 3137 3136 3134 3132 3130 3128 3125 3123
3133 3133 3132 3132 3133 3134 3135 3136 3136 3137 3138 3141 3141 3141 3143 3144 3145 3146 3147 3149 3150 3150 3150 3150 3151 3152 3151 3150 3150 3150 3149 3149 3149 3149 3144 3139 3134 3133 3132 3129 3128 3126 3122 3119 3117
3128 3129 3129 3129 3131 3130 3131 3132 3134 3134 3136 3137 3138 3139 3140 3142 3143 3144 3145 3146 3147 3148 3148 3148 3147 3148 3148 3147 3146 3146 3146 3146 3147 3146 3143 3139 3130 3128 3127 3125 3121 3120 3117 3114 3111
3123 3123 3125 3125 3126 3127 3128 3129 3130 3132 3133 3134 3135 3136 3138 3139 3142 3141 3142 3144 3145 3145 3145 3145 3145 3145 3144 3146 3144 3143 3143 3142 3141 3140 3137 3135 3127 3125 3123 3119 3116 3113 3111 3107 3104
3119 3119 3120 3120 3122 3123 3125 3126 3127 3129 3130 3131 3133 3134 3135 3136 3138 3139 3140 3141 3142 3142 3142 3141 3141 3141 3141 3141 3142 3140 3139 3138 3137 3134 3129 3126 3120 3120 3119 3114 3110 3106 3103 3100 3096
3113 3113 3115 3115 3117 3118 3121 3122 3124 3125 3127 3128 3130 3131 3132 3134 3135 3136 3138 3138 3138 3138 3138 3138 3138 3137 3136 3135 3135 3134 3133 3131 3129 3125 3123 3119 3117 3115 3112 3108 3104 3099 3096 3092 3088
3107 3109 3110 3111 3113 3115 3115 3117 3120 3122 3124 3124 3126 3127 3130 3131 3131 3132 3133 3134 3135 3135 3134 3132 3130 3129 3128 3128 3128 3125 3123 3120 3119 3118 3116 3114 3111 3110 3107 3103 3099 3095 3091 3087 3081
3100 3101 3103 3105 3107 3110 3111 3112 3114 3117 3120 3120 3122 3124 3125 3126 3127 3128 3128 3129 3130 3129 3128 3126 3125 3124 3121 3121 3120 3119 3113 3114 3115 3114 3112 3110 3108 3104 3102 3097 3093 3090 3086 3080 3073